Weather History for Alliance, NE

Change the Weather History Date:

Monday, May 6, 2013

  Actual Average Record
Temperature  
Mean Temperature 51 °F 51 °F  
Max Temperature 71 °F 67 °F 93 °F (1916)
Min Temperature 31 °F 36 °F 22 °F (1944)
Degree Days  
Heating Degree Days 14 14  
Month to date heating degree days 148 89  
Since 1 July heating degree days 6978 6978  
Cooling Degree Days 0 0  
Month to date cooling degree days 0 0  
Year to date cooling degree days 0 0  
Moisture  
Dew Point 27 °F    
Average Humidity 52    
Maximum Humidity 85    
Minimum Humidity 18    
Precipitation  
Precipitation 0.00 in 0.07 in 1.30 in (1968)
Month to date precipitation 0.28 0.55  
Year to date precipitation 3.10 3.41  
Sea Level Pressure  
Sea Level Pressure 30.01 in    
Wind  
Wind Speed 9 mph (SSE)    
Max Wind Speed 20 mph    
Max Gust Speed 26 mph    
Visibility 10 miles    
Events      
T = Trace of Precipitation, MM = Missing Value Source: NWS Daily Summary

Daily Weather History Graph

Daily Weather History Graph

Search for Another Location

Airport:

Trip Planner

Search our weather history database for the weather conditions in past years. The results will help you decide how hot, cold, wet, or windy it might be!

Date:

Astronomy

May. 06, 2013 Rise Set
Actual Time 5:40 AM MDT 7:55 PM MDT
Civil Twilight 5:09 AM MDT 8:27 PM MDT
Nautical Twilight 4:31 AM MDT 9:05 PM MDT
Astronomical Twilight 3:48 AM MDT 9:48 PM MDT
Moon 3:46 AM MDT (5/6) 4:55 PM MDT (5/6)
Length of Visible Light 15h 17m
Length of Day
14h 15m
Waning Crescent, 10% of the Moon is Illuminated
May 6
Waning Crescent
May 9
New
May 17
First Quarter
May 24
Full
May 31
Last Quarter

Hourly Weather History & Observations

Time (MDT) Temp. Windchill Dew Point Humidity Pressure Visibility Wind Dir Wind Speed Gust Speed Precip Events Conditions
12:53 AM 43.0 °F 40.3 °F 27.0 °F 53% 30.09 in 10.0 mi SE 4.6 mph - N/A   Clear
1:53 AM 39.0 °F 34.8 °F 26.1 °F 60% 30.09 in 10.0 mi SSE 5.8 mph - N/A   Clear
2:53 AM 37.0 °F - 27.0 °F 67% 30.08 in 10.0 mi Calm Calm - N/A   Clear
3:53 AM 37.0 °F 33.3 °F 26.1 °F 65% 30.06 in 10.0 mi SSE 4.6 mph - N/A   Clear
4:53 AM 35.1 °F - 26.1 °F 70% 30.07 in 10.0 mi Calm Calm - N/A   Clear
5:53 AM 30.9 °F - 26.1 °F 82% 30.10 in 10.0 mi Calm Calm - N/A   Clear
6:53 AM 39.9 °F - 30.9 °F 70% 30.09 in 10.0 mi Calm Calm - N/A   Clear
7:53 AM 46.9 °F - 28.9 °F 50% 30.09 in 10.0 mi ESE 3.5 mph - N/A   Clear
8:53 AM 54.0 °F - 28.9 °F 38% 30.08 in 10.0 mi SSW 5.8 mph - N/A   Clear
9:53 AM 63.0 °F - 23.0 °F 22% 30.06 in 10.0 mi South 12.7 mph - N/A   Clear
10:53 AM 64.9 °F - 21.9 °F 19% 30.05 in 10.0 mi South 12.7 mph 19.6 mph N/A   Partly Cloudy
11:53 AM 64.9 °F - 23.0 °F 20% 30.03 in 10.0 mi SE 13.8 mph 21.9 mph N/A   Clear
12:53 PM 66.0 °F - 23.0 °F 20% 30.00 in 10.0 mi SSE 16.1 mph 21.9 mph N/A   Clear
1:53 PM 69.1 °F - 24.1 °F 18% 29.99 in 10.0 mi South 11.5 mph 17.3 mph N/A   Clear
2:53 PM 70.0 °F - 24.1 °F 18% 29.96 in 10.0 mi South 15.0 mph 20.7 mph N/A   Clear
3:53 PM 69.1 °F - 25.0 °F 19% 29.94 in 10.0 mi ESE 4.6 mph - N/A   Clear
4:53 PM 70.0 °F - 25.0 °F 18% 29.93 in 10.0 mi SSE 16.1 mph 21.9 mph N/A   Clear
5:53 PM 69.1 °F - 26.1 °F 20% 29.94 in 10.0 mi SSE 13.8 mph - N/A   Clear
6:53 PM 66.0 °F - 27.0 °F 23% 29.92 in 10.0 mi SE 10.4 mph - N/A   Clear
7:53 PM 55.9 °F - 30.9 °F 39% 29.93 in 10.0 mi ESE 9.2 mph - N/A   Clear
8:53 PM 50.0 °F - 33.1 °F 52% 29.94 in 10.0 mi ESE 10.4 mph - N/A   Partly Cloudy
9:53 PM 55.0 °F - 34.0 °F 45% 29.92 in 10.0 mi SE 12.7 mph - N/A   Mostly Cloudy
10:53 PM 55.9 °F - 36.0 °F 47% 29.91 in 10.0 mi SE 13.8 mph - N/A   Mostly Cloudy
11:53 PM 55.0 °F - 36.0 °F 49% 29.91 in 10.0 mi SSE 17.3 mph 26.5 mph N/A   Overcast